User: anonymous   Login
Location: Unspecified
(0.0000°N, 0.0000°E)
Time: 10:04:23
(UTC+00:00)
Language:

TBA - TO BE ASSIGNED - Orbit

View from above orbital plane
View from above orbital plane
View from above satellite
View from above satellite

Ground track
Ground track

The orbit is defined by the following mean orbital elements,

1 67675U          26145.41625833 +.00000000 +00000-0 +43606-3 0 00006
2 67675  96.6262 209.5134 0016598 214.5478 145.4684 15.24617010    07
Epoch (UTC): 25 May 2026 09:59:24
Eccentricity: 0.0016598
inclination: 96.6262°
perigee height: 481 km
apogee height: 503 km
right ascension of ascending node: 209.5134°
argument of perigee: 214.5478°
revolutions per day: 15.24617010
mean anomaly at epoch: 145.4684°

The dashed part of the orbit path shows where the satellite is in the earth's shadow,  

DLR